When you browse on this site, cookies collect data to enhance your experience and personalize the content and advertising you see.
Visit our Privacy Policy to learn more. By continuing to use the site, you agree to this use of cookies and data.

Stündliche Wetter Uzranki

Heute, 13 Juli, Montag

Zeit Temperatur Niederschläge Wind Luftdruck Luftfeuchtigkeit
00:00 +9°C° 0 mm 2 m/S 750 mmHg 93%
01:00 +8°C° 0 mm 2 m/S 750 mmHg 94%
02:00 +8°C° 0 mm 3 m/S 750 mmHg 95%
03:00 +8°C° 0 mm 3 m/S 750 mmHg 95%
04:00 +8°C° 0 mm 3 m/S 749 mmHg 96%
05:00 +9°C° 0 mm 3 m/S 749 mmHg 92%
06:00 +11°C° 0 mm 3 m/S 749 mmHg 88%
07:00 +13°C° 0 mm 4 m/S 749 mmHg 84%
08:00 +14°C° 0.3 mm 4 m/S 749 mmHg 80%
09:00 +15°C° 0.3 mm 4 m/S 749 mmHg 77%
10:00 +18°C° 0.3 mm 4 m/S 749 mmHg 74%
11:00 +18°C° 0.4 mm 4 m/S 749 mmHg 74%
12:00 +18°C° 0.4 mm 4 m/S 749 mmHg 75%
13:00 +18°C° 0.4 mm 4 m/S 749 mmHg 75%
14:00 +18°C° 0.2 mm 4 m/S 748 mmHg 75%
15:00 +18°C° 0.2 mm 4 m/S 748 mmHg 74%
16:00 +18°C° 0.2 mm 4 m/S 748 mmHg 74%
17:00 +17°C° 0 mm 4 m/S 748 mmHg 78%
18:00 +16°C° 0 mm 3 m/S 748 mmHg 82%
19:00 +14°C° 0 mm 3 m/S 748 mmHg 86%
20:00 +14°C° 0 mm 2 m/S 748 mmHg 89%
21:00 +13°C° 0 mm 2 m/S 748 mmHg 92%
22:00 +10°C° 0 mm 2 m/S 748 mmHg 95%
23:00 +10°C° 0 mm 2 m/S 748 mmHg 95%

Morgen, 14 Juli, Dienstag

Zeit Temperatur Niederschläge Wind Luftdruck Luftfeuchtigkeit
00:00 +10°C° 0 mm 2 m/S 748 mmHg 95%
01:00 +10°C° 0 mm 2 m/S 748 mmHg 95%
02:00 +10°C° 0 mm 2 m/S 747 mmHg 95%
03:00 +9°C° 0 mm 2 m/S 747 mmHg 95%
04:00 +9°C° 0 mm 2 m/S 747 mmHg 95%
05:00 +12°C° 0 mm 2 m/S 747 mmHg 89%
06:00 +13°C° 0 mm 2 m/S 747 mmHg 84%
07:00 +15°C° 0 mm 2 m/S 747 mmHg 78%
08:00 +16°C° 0 mm 2 m/S 747 mmHg 73%
09:00 +18°C° 0 mm 2 m/S 747 mmHg 67%
10:00 +19°C° 0 mm 2 m/S 747 mmHg 62%
11:00 +19°C° 0 mm 2 m/S 747 mmHg 61%
12:00 +20°C° 0 mm 2 m/S 747 mmHg 60%
13:00 +21°C° 0 mm 3 m/S 747 mmHg 59%
14:00 +21°C° 0 mm 3 m/S 746 mmHg 60%
15:00 +21°C° 0 mm 3 m/S 746 mmHg 60%
16:00 +21°C° 0 mm 3 m/S 746 mmHg 61%
17:00 +19°C° 0 mm 2 m/S 746 mmHg 68%
18:00 +18°C° 0 mm 2 m/S 746 mmHg 75%
19:00 +17°C° 0 mm 2 m/S 746 mmHg 81%
20:00 +15°C° 0 mm 1 m/S 746 mmHg 83%
21:00 +14°C° 0 mm 1 m/S 745 mmHg 85%
22:00 +12°C° 0 mm 1 m/S 745 mmHg 87%
23:00 +12°C° 0 mm 1 m/S 745 mmHg 87%

übermorgen, 15 Juli, Mittwoch

Zeit Temperatur Niederschläge Wind Luftdruck Luftfeuchtigkeit
00:00 +12°C° 0 mm 1 m/S 745 mmHg 87%
01:00 +12°C° 0 mm 1 m/S 745 mmHg 87%
02:00 +12°C° 0 mm 1 m/S 745 mmHg 88%
03:00 +11°C° 0 mm 1 m/S 745 mmHg 89%
04:00 +11°C° 0 mm 1 m/S 745 mmHg 90%
05:00 +13°C° 0 mm 1 m/S 745 mmHg 84%
06:00 +15°C° 0 mm 1 m/S 745 mmHg 79%
07:00 +19°C° 0 mm 1 m/S 745 mmHg 73%
08:00 +20°C° 0 mm 1 m/S 745 mmHg 67%
09:00 +20°C° 0 mm 2 m/S 745 mmHg 61%
10:00 +23°C° 0 mm 2 m/S 745 mmHg 55%
11:00 +23°C° 0 mm 2 m/S 744 mmHg 53%
12:00 +24°C° 0 mm 2 m/S 744 mmHg 51%
13:00 +24°C° 0 mm 2 m/S 744 mmHg 49%
14:00 +24°C° 0 mm 3 m/S 744 mmHg 52%
15:00 +24°C° 0 mm 3 m/S 743 mmHg 54%
16:00 +24°C° 0 mm 3 m/S 743 mmHg 57%
17:00 +21°C° 0 mm 3 m/S 743 mmHg 62%
18:00 +20°C° 0 mm 3 m/S 743 mmHg 68%
19:00 +19°C° 0 mm 2 m/S 743 mmHg 74%
20:00 +17°C° 0.1 mm 3 m/S 743 mmHg 76%
21:00 +16°C° 0.1 mm 3 m/S 743 mmHg 78%
22:00 +14°C° 0.1 mm 3 m/S 743 mmHg 80%
23:00 +14°C° 0.1 mm 3 m/S 742 mmHg 82%

16 Juli, Donnerstag

Zeit Temperatur Niederschläge Wind Luftdruck Luftfeuchtigkeit
00:00 +13°C° 0.1 mm 3 m/S 742 mmHg 83%
01:00 +13°C° 0.1 mm 3 m/S 742 mmHg 84%
02:00 +13°C° 0 mm 3 m/S 742 mmHg 85%
03:00 +13°C° 0 mm 3 m/S 742 mmHg 86%
04:00 +13°C° 0 mm 3 m/S 742 mmHg 87%
05:00 +14°C° 0 mm 3 m/S 742 mmHg 85%
06:00 +16°C° 0 mm 3 m/S 742 mmHg 84%
07:00 +18°C° 0 mm 3 m/S 742 mmHg 83%
08:00 +19°C° 0.6 mm 3 m/S 742 mmHg 81%
09:00 +20°C° 0.6 mm 3 m/S 742 mmHg 78%
10:00 +22°C° 0.6 mm 3 m/S 742 mmHg 76%
11:00 +21°C° 1 mm 2 m/S 742 mmHg 79%
12:00 +20°C° 1 mm 2 m/S 742 mmHg 81%
13:00 +21°C° 1 mm 1 m/S 742 mmHg 84%
14:00 +20°C° 0.4 mm 1 m/S 742 mmHg 86%
15:00 +20°C° 0.4 mm 1 m/S 741 mmHg 88%
16:00 +19°C° 0.4 mm 1 m/S 741 mmHg 90%
17:00 +19°C° 0.2 mm 1 m/S 741 mmHg 91%
18:00 +18°C° 0.2 mm 1 m/S 741 mmHg 92%
19:00 +15°C° 0.2 mm 0 m/S 741 mmHg 94%
20:00 +16°C° 0.1 mm 1 m/S 741 mmHg 94%
21:00 +16°C° 0.1 mm 1 m/S 741 mmHg 94%
22:00 +16°C° 0.1 mm 1 m/S 742 mmHg 95%
23:00 +16°C° 0.4 mm 1 m/S 742 mmHg 95%

17 Juli, Freitag

Zeit Temperatur Niederschläge Wind Luftdruck Luftfeuchtigkeit
00:00 +15°C° 0.4 mm 1 m/S 742 mmHg 96%
01:00 +15°C° 0.4 mm 1 m/S 742 mmHg 97%
02:00 +15°C° 1 mm 1 m/S 742 mmHg 98%
03:00 +14°C° 1 mm 0 m/S 742 mmHg 98%
04:00 +14°C° 1 mm 0 m/S 742 mmHg 98%
05:00 +14°C° 1.8 mm 0 m/S 742 mmHg 98%
06:00 +15°C° 1.8 mm 1 m/S 742 mmHg 98%
07:00 +15°C° 1.8 mm 1 m/S 742 mmHg 98%
08:00 +16°C° 1.4 mm 1 m/S 742 mmHg 97%
09:00 +16°C° 1.4 mm 1 m/S 742 mmHg 97%
10:00 +16°C° 1.4 mm 1 m/S 742 mmHg 96%
11:00 +16°C° 1.6 mm 1 m/S 742 mmHg 96%
12:00 +16°C° 1.6 mm 1 m/S 742 mmHg 96%
13:00 +16°C° 1.6 mm 1 m/S 742 mmHg 95%
14:00 +16°C° 0.9 mm 1 m/S 742 mmHg 95%
15:00 +16°C° 0.9 mm 2 m/S 742 mmHg 94%
16:00 +16°C° 0.9 mm 2 m/S 742 mmHg 94%
17:00 +16°C° 1 mm 2 m/S 742 mmHg 94%
18:00 +16°C° 1 mm 2 m/S 742 mmHg 95%
19:00 +15°C° 1 mm 2 m/S 742 mmHg 96%
20:00 +15°C° 0.4 mm 2 m/S 743 mmHg 95%
21:00 +15°C° 0.4 mm 2 m/S 743 mmHg 95%
22:00 +15°C° 0.4 mm 2 m/S 743 mmHg 94%
23:00 +15°C° 0.4 mm 2 m/S 743 mmHg 95%

18 Juli, Samstag

Zeit Temperatur Niederschläge Wind Luftdruck Luftfeuchtigkeit
00:00 +14°C° 0.4 mm 2 m/S 743 mmHg 95%
01:00 +14°C° 0.4 mm 2 m/S 743 mmHg 95%
02:00 +14°C° 0.1 mm 2 m/S 743 mmHg 95%
03:00 +13°C° 0.1 mm 2 m/S 743 mmHg 95%
04:00 +13°C° 0.1 mm 2 m/S 743 mmHg 95%
05:00 +14°C° 0 mm 2 m/S 743 mmHg 93%
06:00 +16°C° 0 mm 2 m/S 743 mmHg 91%
07:00 +17°C° 0 mm 3 m/S 743 mmHg 89%
08:00 +18°C° 0.1 mm 3 m/S 743 mmHg 81%
09:00 +20°C° 0.1 mm 3 m/S 743 mmHg 74%
10:00 +21°C° 0.1 mm 3 m/S 743 mmHg 66%
11:00 +21°C° 0.2 mm 3 m/S 743 mmHg 66%
12:00 +22°C° 0.2 mm 3 m/S 743 mmHg 66%
13:00 +22°C° 0.2 mm 3 m/S 743 mmHg 65%
14:00 +22°C° 0.5 mm 3 m/S 743 mmHg 69%
15:00 +21°C° 0.5 mm 4 m/S 743 mmHg 72%
16:00 +21°C° 0.5 mm 4 m/S 743 mmHg 76%
17:00 +20°C° 0.1 mm 3 m/S 743 mmHg 79%
18:00 +18°C° 0.1 mm 3 m/S 743 mmHg 82%
19:00 +17°C° 0.1 mm 3 m/S 743 mmHg 86%
20:00 +16°C° 0 mm 3 m/S 743 mmHg 88%
21:00 +13°C° 0 mm 3 m/S 743 mmHg 90%
22:00 +13°C° 0 mm 2 m/S 743 mmHg 92%
23:00 +13°C° 0 mm 2 m/S 743 mmHg 92%
Mehr zeigen